STARLINK-6078

decayed
NORAD ID: 56106 Int'l Des: 2023-046 Owner: SPXS Country: US Constellation: starlink
LEOCIRCULAR
グループ

STARLINK-6078について

説明を読み込み中...

高度履歴

Altitude vs Time

uPlot chart will show altitude changes over time

軌道要素

1 56106U 23046P 25017.63295113 .10704860 94182-5 39864-3 0 9996
2 56106 42.9873 228.3469 0004166 290.4043 127.6329 16.44230702100376
Epoch: Jan 17, 2025 • Age: 5803 hours

現在のステータス

Position data unavailable
打ち上げ日 Mar 29, 2023
運用期間 2.4 years
落下予定日 Jan 17, 2025
タイプ internet

技術仕様

分類 Payload
質量 305.00 kg
乾燥質量 290.00 kg
総質量 305.00 kg
長さ 0.20 m
直径 2.80 m
スパン 9.00 m
形状 Box + pan
製造者 SPXS
バスタイプ Starlink
フェーズステータス Unknown Transfer Status
所有者/国 SPXS/US

大規模コンステレーション

Loading constellations...